ネオワイズ彗星

C/2016 B1 ( NEOWISE )

English version
Home page
Updated on October 9, 2017

---------------------------------------------------------------------

・ プロフィール

発見日 2016年1月17日
発見光度 19等
発見者 Near-Earth Object Wide-field Infrared Survey Explorer

・ 写真集

・ 軌道要素

Epoch 2016 Nov. 28.0 TT = JDT 2457720.5
T 2016 Dec. 4.71872 TT                                  MPCW
q   3.2061599            (2000.0)            P               Q
z  +0.0023041      Peri.    8.55947     -0.53484231     +0.58732794
 +/-0.0000022      Node   231.95351     -0.81370569     -0.55171783
e   0.9926126      Incl.   50.47511     -0.22765490     +0.59215988
From 115 observations 2016 Jan. 17-2017 Mar. 3, mean residual 0".5.

・ 星図

・ 光度変化

        m1 = 3.0 + 5 logΔ + 20.0 log r

---------------------------------------------------------------------

軌道要素はM.P.E.C. 2017-E59に掲載されたものです。
星図はステラナビゲータ Ver.10 (アストロアーツ) で作成したものです。
光度グラフはComet for Windowsで作成したものです。

---------------------------------------------------------------------

Copyright(C) Seiichi Yoshida (comet@aerith.net). All rights reserved.